Waarnemingen

Advertentie
Mijn weer
Falsterbo, Zweden (2616): temperatuur & dauwpunt: 19.05.2019 21:00:00 - 25.05.2019 21:00:00 (CEST)Falsterbo, Zweden (2616): windsnelheid: 19.05.2019 21:00:00 - 25.05.2019 21:00:00 (CEST)Falsterbo, Zweden (2616): windrichting: 19.05.2019 21:00:00 - 25.05.2019 21:00:00 (CEST)Falsterbo, Zweden (2616): luchtdruk: 19.05.2019 21:00:00 - 25.05.2019 21:00:00 (CEST)Falsterbo, Zweden (2616): zicht: 19.05.2019 21:00:00 - 25.05.2019 21:00:00 (CEST)
Datum & Tijd tt [°C] td [°C] ff [km/u] ff [kn] dd ppp [hPa] vv [km]
25.05.2019 21:00:00 - - - - - - -
25.05.2019 20:00:00 14,5 10,3 29 16 WNW 1011,7 35
25.05.2019 19:00:00 - - - - - - -
25.05.2019 18:00:00 - - - - - - -
25.05.2019 17:00:00 16,1 11,1 18 10 ZW 1012,1 30
25.05.2019 16:00:00 - - - - - - -
25.05.2019 15:00:00 - - - - - - -
25.05.2019 14:00:00 15,2 10,4 22 12 WZW 1012,4 30
25.05.2019 13:00:00 - - - - - - -
25.05.2019 12:00:00 - - - - - - -
25.05.2019 11:00:00 13,9 9,7 22 12 W 1012,2 35
25.05.2019 10:00:00 - - - - - - -
25.05.2019 09:00:00 - - - - - - -
25.05.2019 08:00:00 12,2 8,5 25 14 WZW 1011,3 21
25.05.2019 07:00:00 - - - - - - -
25.05.2019 06:00:00 - - - - - - -
25.05.2019 05:00:00 - - - - - - -
25.05.2019 04:00:00 - - - - - - -
25.05.2019 03:00:00 - - - - - - -
25.05.2019 02:00:00 - - - - - - -
25.05.2019 01:00:00 - - - - - - -
25.05.2019 00:00:00 - - - - - - -
24.05.2019 23:00:00 - - - - - - -
24.05.2019 22:00:00 - - - - - - -
24.05.2019 21:00:00 - - - - - - -
24.05.2019 20:00:00 12,9 9,7 25 14 W 1009,6 35
24.05.2019 19:00:00 - - - - - - -
24.05.2019 18:00:00 - - - - - - -
24.05.2019 17:00:00 14,7 10,5 22 12 WNW 1009,6 25
24.05.2019 16:00:00 - - - - - - -
24.05.2019 15:00:00 - - - - - - -
24.05.2019 14:00:00 17,4 11,7 29 16 ZZW 1010,1 23
24.05.2019 13:00:00 - - - - - - -
24.05.2019 12:00:00 - - - - - - -
24.05.2019 11:00:00 15,5 9,2 18 10 ZW 1011,5 26
24.05.2019 10:00:00 - - - - - - -
24.05.2019 09:00:00 - - - - - - -
24.05.2019 08:00:00 13,1 11,0 22 12 ZW 1012,2 13
24.05.2019 07:00:00 - - - - - - -
24.05.2019 06:00:00 - - - - - - -
24.05.2019 05:00:00 - - - - - - -
24.05.2019 04:00:00 - - - - - - -
24.05.2019 03:00:00 - - - - - - -
24.05.2019 02:00:00 - - - - - - -
24.05.2019 01:00:00 - - - - - - -
24.05.2019 00:00:00 - - - - - - -
23.05.2019 23:00:00 - - - - - - -
23.05.2019 22:00:00 - - - - - - -
23.05.2019 21:00:00 - - - - - - -
23.05.2019 20:00:00 14,5 10,5 18 10 ZW 1015,5 27
23.05.2019 19:00:00 - - - - - - -
23.05.2019 18:00:00 - - - - - - -
23.05.2019 17:00:00 15,9 10,6 18 10 ZW 1016,1 30
23.05.2019 16:00:00 - - - - - - -
23.05.2019 15:00:00 - - - - - - -
23.05.2019 14:00:00 16,3 9,5 18 10 ZZW 1017,1 35
23.05.2019 13:00:00 - - - - - - -
23.05.2019 12:00:00 - - - - - - -
23.05.2019 11:00:00 13,6 9,3 14 8 WNW 1017,5 35
23.05.2019 10:00:00 - - - - - - -
23.05.2019 09:00:00 - - - - - - -
23.05.2019 08:00:00 10,7 8,5 32 18 WNW 1016,7 21
23.05.2019 07:00:00 - - - - - - -
23.05.2019 06:00:00 - - - - - - -
23.05.2019 05:00:00 - - - - - - -
23.05.2019 04:00:00 - - - - - - -
23.05.2019 03:00:00 - - - - - - -
23.05.2019 02:00:00 - - - - - - -
23.05.2019 01:00:00 - - - - - - -
23.05.2019 00:00:00 - - - - - - -
22.05.2019 23:00:00 - - - - - - -
22.05.2019 22:00:00 - - - - - - -
22.05.2019 21:00:00 - - - - - - -
22.05.2019 20:00:00 12,2 10,1 40 21 NW 1014,0 28
22.05.2019 19:00:00 - - - - - - -
22.05.2019 18:00:00 - - - - - - -
22.05.2019 17:00:00 12,8 11,2 40 21 NW 1012,7 20
22.05.2019 16:00:00 - - - - - - -
22.05.2019 15:00:00 - - - - - - -
22.05.2019 14:00:00 13,5 12,4 36 19 WNW 1011,5 5
22.05.2019 13:00:00 - - - - - - -
22.05.2019 12:00:00 - - - - - - -
22.05.2019 11:00:00 13,2 11,9 14 8 W 1010,5 1,4
22.05.2019 10:00:00 - - - - - - -
22.05.2019 09:00:00 - - - - - - -
22.05.2019 08:00:00 12,3 11,8 7 4 ZO 1009,4 4,4
22.05.2019 07:00:00 - - - - - - -
22.05.2019 06:00:00 - - - - - - -
22.05.2019 05:00:00 - - - - - - -
22.05.2019 04:00:00 - - - - - - -
22.05.2019 03:00:00 - - - - - - -
22.05.2019 02:00:00 - - - - - - -
22.05.2019 01:00:00 - - - - - - -
22.05.2019 00:00:00 - - - - - - -
21.05.2019 23:00:00 - - - - - - -
21.05.2019 22:00:00 - - - - - - -
21.05.2019 21:00:00 - - - - - - -
21.05.2019 20:00:00 11,9 11,1 11 6 ZO 1007,5 0,8
21.05.2019 19:00:00 - - - - - - -
21.05.2019 18:00:00 - - - - - - -
21.05.2019 17:00:00 12,7 11,6 7 4 OZO 1007,0 1,3
21.05.2019 16:00:00 - - - - - - -
21.05.2019 15:00:00 - - - - - - -
21.05.2019 14:00:00 14,1 12,7 14 8 ZZO 1006,8 8
21.05.2019 13:00:00 - - - - - - -
21.05.2019 12:00:00 - - - - - - -
21.05.2019 11:00:00 14,0 12,6 7 4 WNW 1005,8 7
21.05.2019 10:00:00 - - - - - - -
21.05.2019 09:00:00 - - - - - - -
21.05.2019 08:00:00 15,0 13,9 14 8 N 1005,2 8
21.05.2019 07:00:00 - - - - - - -
21.05.2019 06:00:00 - - - - - - -
21.05.2019 05:00:00 - - - - - - -
21.05.2019 04:00:00 - - - - - - -
21.05.2019 03:00:00 - - - - - - -
21.05.2019 02:00:00 - - - - - - -
21.05.2019 01:00:00 - - - - - - -
21.05.2019 00:00:00 - - - - - - -
20.05.2019 23:00:00 - - - - - - -
20.05.2019 22:00:00 - - - - - - -
20.05.2019 21:00:00 - - - - - - -
20.05.2019 20:00:00 17,5 14,6 25 14 NNO 1006,0 22
20.05.2019 19:00:00 - - - - - - -
20.05.2019 18:00:00 - - - - - - -
20.05.2019 17:00:00 18,6 13,7 18 10 N 1006,2 28
20.05.2019 16:00:00 - - - - - - -
20.05.2019 15:00:00 - - - - - - -
20.05.2019 14:00:00 17,5 14,4 14 8 N 1007,7 5
20.05.2019 13:00:00 - - - - - - -
20.05.2019 12:00:00 - - - - - - -
20.05.2019 11:00:00 14,7 12,6 7 4 WNW 1007,5 4,8
20.05.2019 10:00:00 - - - - - - -
20.05.2019 09:00:00 - - - - - - -
20.05.2019 08:00:00 12,4 11,5 4 2 OZO 1007,0 1,0
20.05.2019 07:00:00 - - - - - - -
20.05.2019 06:00:00 - - - - - - -
20.05.2019 05:00:00 - - - - - - -
20.05.2019 04:00:00 - - - - - - -
20.05.2019 03:00:00 - - - - - - -
20.05.2019 02:00:00 - - - - - - -
20.05.2019 01:00:00 - - - - - - -
20.05.2019 00:00:00 - - - - - - -
19.05.2019 23:00:00 - - - - - - -
19.05.2019 22:00:00 - - - - - - -
19.05.2019 21:00:00 - - - - - - -

tt = temperatuur
td = dauwpunt
ff = windsnelheid
dd = windrichting
ppp = luchtdruk
vv = zicht

Weerstations in de omgeving